This demonstration page uses our WeatherBlox Daily Observations layout. Learn more.

36.17497, -115.13722

Hourly Observations for February 13, 2018

Temp ( °F °C ) Dew Point ( °F °C ) Humidity (%) Winds ( mph kmh ) Pressure ( in mb ) Visibility ( mi km ) Precip ( " mm )
12:53 am 00:53 Cloudy 48 8.9 40 4.4 74 74 S 6 9 30.04 1017 10 16.0934 0 0.0254
1:53 am 01:53 Cloudy 47 8.3 41 5 80 80 ESE 12 19 30.07 1018 10 16.0934 0 0
2:53 am 02:53 Cloudy 46 7.8 41 5 83 83 ESE 10 17 30.09 1019 10 16.0934 0 0
3:53 am 03:53 Cloudy 46 7.8 38 3.3 73 73 E 9 15 30.11 1020 10 16.0934 0 0
4:53 am 04:53 Cloudy 46 7.8 39 3.9 77 77 ESE 6 9 30.13 1020 10 16.0934 0 0
5:53 am 05:53 Partly Cloudy 46 7.8 39 3.9 77 77 Calm 30.16 1021 10 16.0934 0 0
6:53 am 06:53 Mostly Sunny 45 7.2 39 3.9 80 80 SW 3 6 30.2 1023 10 16.0934 0 0
7:53 am 07:53 Sunny 47 8.3 39 3.9 74 74 SW 5 7 30.22 1024 10 16.0934 0 0
8:53 am 08:53 Sunny 49 9.4 39 3.9 69 69 SE 5 7 30.24 1024 10 16.0934 0 0
9:53 am 09:53 Mostly Cloudy 51 10.6 38 3.3 61 61 S 5 7 30.26 1025 10 16.0934 0 0
10:53 am 10:53 Partly Cloudy 54 12.2 36 2.2 51 51 ENE 7 11 30.25 1025 10 16.0934 0 0
11:53 am 11:53 Mostly Cloudy 56 13.3 35 1.7 46 46 Calm 30.24 1024 10 16.0934 0 0
12:53 pm 12:53 Mostly Cloudy 55 12.8 34 1.1 45 45 SE 6 9 30.23 1024 10 16.0934 0 0
1:53 pm 13:53 Partly Cloudy 57 13.9 34 1.1 42 42 ESE 6 9 30.23 1024 10 16.0934 0 0
2:53 pm 14:53 Mostly Sunny 59 15 35 1.7 41 41 VRB 7 11 30.21 1023 10 16.0934 0 0
3:53 pm 15:53 Sunny 58 14.4 35 1.7 42 42 E 7 11 30.21 1023 10 16.0934 0 0
4:53 pm 16:53 Mostly Cloudy 57 13.9 33 0.6 41 41 ESE 6 9 30.22 1023 10 16.0934 0 0
5:53 pm 17:53 Partly Cloudy 56 13.3 33 0.6 42 42 S 5 7 30.23 1024 10 16.0934 0 0
6:53 pm 18:53 Cloudy 56 13.3 34 1.1 44 44 Calm 30.24 1024 10 16.0934 0 0
7:53 pm 19:53 Cloudy 56 13.3 34 1.1 44 44 NE 3 6 30.24 1024 10 16.0934 0 0
8:53 pm 20:53 Cloudy 56 13.3 34 1.1 44 44 Calm 30.24 1024 10 16.0934 0 0
9:53 pm 21:53 Cloudy 55 12.8 36 2.2 49 49 W 3 6 30.24 1024 10 16.0934 0 0
10:53 pm 22:53 Cloudy 55 12.8 36 2.2 49 49 Calm 30.23 1024 10 16.0934 0 0
11:53 pm 23:53 Cloudy 53 11.7 37 2.8 55 55 Calm 30.22 1023 10 16.0934 0 0

Powered by AerisWeather